K1QL Weather Reports


Display with metric or nautical units.
time (UTC)temp
F
wind
direction
speed
MPH
gust
MPH
rain 1hr
in
rain 24hr
in
rain mn
in
humidity
%
barometer
mb
20260506221737 59 116 2.0 4.0 0.00 0.05 0.05 92 1006.3
20260506221234 59 138 3.0 4.0 0.00 0.05 0.05 92 1006.5
20260506220731 59 151 5.0 5.0 0.02 0.05 0.05 92 1006.5
20260506220226 59 164 0.0 4.0 0.02 0.05 0.05 92 1006.8
20260506215723 59 140 3.0 4.0 0.00 0.05 0.05 92 1006.8
20260506215218 59 175 3.0 5.0 0.00 0.05 0.05 92 1006.7
20260506214715 59 135 2.0 2.0 0.02 0.05 0.05 92 1006.8
20260506214213 59 151 2.0 4.0 0.00 0.04 0.04 91 1006.8
20260506213711 59 233 2.0 3.0 0.00 0.04 0.04 91 1006.7
20260506213208 60 177 1.0 3.0 0.02 0.04 0.04 91 1006.8
20260506212705 60 283 0.0 2.0 0.02 0.04 0.04 90 1006.8
20260506212200 60 203 2.0 3.0 0.00 0.04 0.04 90 1006.8
20260506211656 60 177 0.0 2.0 0.00 0.04 0.04 89 1007.1
20260506211152 60 233 3.0 5.0 0.00 0.04 0.04 89 1007.1
20260506210649 60 190 2.0 5.0 0.00 0.04 0.04 89 1007.2
20260506210146 60 224 0.0 7.0 0.00 0.04 0.04 89 1007.2
20260506205644 60 193 3.0 4.0 0.00 0.04 0.04 90 1007.1
20260506205138 60 103 0.0 4.0 0.02 0.04 0.04 90 1007.1
20260506204636 60 186 1.0 8.0 0.02 0.04 0.04 89 1007.0
20260506204133 60 109 2.0 6.0 0.02 0.04 0.04 89 1007.2
20260506203631 60 169 0.0 3.0 0.00 0.03 0.03 89 1007.4
20260506203127 60 188 2.0 3.0 0.00 0.03 0.03 88 1007.4
20260506202626 60 200 2.0 5.0 0.00 0.03 0.03 88 1007.3
20260506202121 60 148 2.0 2.0 0.02 0.03 0.03 88 1007.3
20260506201619 60 186 2.0 3.0 0.02 0.03 0.03 88 1007.5
20260506201115 60 267 1.0 2.0 0.00 0.03 0.03 88 1007.7
20260506200612 60 22 2.0 5.0 0.00 0.03 0.03 88 1007.4
20260506200109 60 261 4.0 6.0 0.00 0.03 0.03 88 1007.5
20260506195605 60 230 6.0 6.0 0.00 0.03 0.03 87 1007.7
20260506195102 61 208 4.0 5.0 0.00 0.03 0.03 87 1007.5
20260506194559 61 211 0.0 4.0 0.02 0.03 0.03 86 1007.4
20260506194055 61 208 5.0 8.0 0.07 0.03 0.03 85 1007.5
20260506193553 61 241 4.0 6.0 0.05 0.02 0.02 83 1007.4
20260506193050 62 154 2.0 9.0 0.05 0.02 0.02 81 1007.4
20260506192547 62 227 4.0 4.0 0.02 0.01 0.01 80 1007.7
20260506192043 62 224 4.0 4.0 0.02 0.01 0.01 79 1007.9
20260506191540 63 187 1.0 4.0 0.02 0.01 0.01 78 1007.7
20260506191035 63 212 2.0 7.0 0.02 0.00 0.00 77 1007.5
20260506190533 63 217 6.0 9.0 0.02 0.00 0.00 76 1007.8
20260506190030 64 274 2.0 7.0 0.00 0.00 0.00 74 1007.5
20260506185527 64 227 7.0 8.0 0.00 0.00 0.00 73 1008.0
20260506185024 65 199 5.0 8.0 0.00 0.00 0.00 71 1007.9
20260506184521 65 290 3.0 6.0 0.00 0.00 0.00 69 1007.9
20260506184018 66 225 3.0 8.0 0.00 0.00 0.00 67 1008.0
20260506183514 66 204 4.0 9.0 0.00 0.00 0.00 66 1007.9
20260506183011 67 184 2.0 4.0 0.00 0.00 0.00 65 1007.8
20260506182508 67 267 2.0 8.0 0.00 0.00 0.00 64 1008.0
20260506182005 68 138 1.0 7.0 0.00 0.00 0.00 63 1008.0
20260506181503 68 191 5.0 11.0 0.00 0.00 0.00 61 1008.2
20260506181000 69 200 4.0 6.0 0.00 0.00 0.00 60 1007.8
20260506180456 69 284 2.0 5.0 0.00 0.00 0.00 59 1008.0
20260506175953 69 203 9.0 10.0 0.00 0.00 0.00 58 1008.2
20260506175450 70 224 4.0 7.0 0.00 0.00 0.00 58 1008.1
20260506174946 70 189 3.0 12.0 0.00 0.00 0.00 57 1008.2
20260506174444 71 274 3.0 3.0 0.00 0.00 0.00 57 1008.2
20260506173940 71 180 5.0 6.0 0.00 0.00 0.00 56 1008.1
20260506173438 71 295 2.0 7.0 0.00 0.00 0.00 55 1008.1
20260506172935 71 237 4.0 6.0 0.00 0.00 0.00 55 1008.5
20260506172432 71 291 3.0 6.0 0.00 0.00 0.00 55 1008.2
20260506171928 71 240 5.0 11.0 0.00 0.00 0.00 55 1008.4
20260506171426 71 254 3.0 11.0 0.00 0.00 0.00 55 1008.5
20260506170924 71 194 5.0 11.0 0.00 0.00 0.00 55 1008.2
20260506170420 72 163 3.0 15.0 0.00 0.00 0.00 53 1008.6
20260506165919 73 301 4.0 10.0 0.00 0.00 0.00 54 1008.4
20260506165417 72 223 8.0 11.0 0.00 0.00 0.00 53 1008.2
20260506164913 72 243 10.0 11.0 0.00 0.00 0.00 53 1008.5
20260506164409 72 233 7.0 11.0 0.00 0.00 0.00 54 1008.4
20260506163908 72 78 3.0 6.0 0.00 0.00 0.00 55 1008.6
20260506163401 72 201 4.0 9.0 0.00 0.00 0.00 55 1009.0
20260506162856 72 227 10.0 13.0 0.00 0.00 0.00 53 1008.9
20260506162355 72 297 2.0 6.0 0.00 0.00 0.00 54 1008.8
20260506161852 71 245 2.0 10.0 0.00 0.00 0.00 55 1008.8
20260506161349 71 218 4.0 13.0 0.00 0.00 0.00 55 1008.9
20260506160847 72 224 4.0 7.0 0.00 0.00 0.00 54 1009.1
20260506160344 72 227 6.0 10.0 0.00 0.00 0.00 54 1009.3
20260506155842 71 262 1.0 4.0 0.00 0.00 0.00 55 1009.1
20260506155338 71 238 8.0 11.0 0.00 0.00 0.00 54 1009.3
20260506153450 72 170 6.0 11.0 0.00 0.00 0.00 54 1009.4
20260506152948 72 267 5.0 8.0 0.00 0.00 0.00 54 1009.5
20260506152444 72 211 4.0 13.0 0.00 0.00 0.00 54 1009.4
20260506151943 72 227 6.0 10.0 0.00 0.00 0.00 56 1009.7
20260506151440 71 205 4.0 9.0 0.00 0.00 0.00 56 1009.5
20260506150937 71 220 6.0 8.0 0.00 0.00 0.00 57 1009.7
20260506150433 71 266 5.0 13.0 0.00 0.00 0.00 58 1009.8
20260506145931 71 260 6.0 10.0 0.00 0.00 0.00 57 1009.6
20260506145427 71 232 7.0 7.0 0.00 0.00 0.00 57 1009.7
20260506144924 70 237 2.0 8.0 0.00 0.00 0.00 57 1009.6
20260506144421 70 197 3.0 11.0 0.00 0.00 0.00 57 1009.7
20260506143919 70 206 5.0 10.0 0.00 0.00 0.00 57 1009.7
20260506143416 71 294 3.0 10.0 0.00 0.00 0.00 56 1009.8
20260506142914 70 250 2.0 6.0 0.00 0.00 0.00 57 1009.7
20260506142412 70 226 4.0 8.0 0.00 0.00 0.00 58 1009.6
20260506141910 70 168 0.0 6.0 0.00 0.00 0.00 58 1009.5
20260506141407 70 230 3.0 10.0 0.00 0.00 0.00 58 1009.7
20260506140906 70 244 4.0 11.0 0.00 0.00 0.00 57 1009.6
20260506140402 70 141 11.0 12.0 0.00 0.00 0.00 59 1009.6
20260506135859 70 241 5.0 7.0 0.00 0.00 0.00 59 1009.7
20260506135356 69 201 5.0 11.0 0.00 0.00 0.00 61 1009.6
20260506134852 69 252 4.0 15.0 0.00 0.00 0.00 61 1009.6
20260506134348 69 194 5.0 10.0 0.00 0.00 0.00 61 1009.8
20260506133846 69 214 3.0 10.0 0.00 0.00 0.00 60 1009.5
20260506133342 70 213 4.0 8.0 0.00 0.00 0.00 61 1009.7
20260506132839 69 215 5.0 5.0 0.00 0.00 0.00 61 1010.0
20260506132336 69 52 2.0 6.0 0.00 0.00 0.00 62 1010.1
20260506131834 69 276 4.0 4.0 0.00 0.00 0.00 62 1010.1
20260506131330 68 258 3.0 9.0 0.00 0.00 0.00 63 1010.0
20260506130828 69 261 3.0 5.0 0.00 0.00 0.00 63 1010.3
20260506130324 68 336 2.0 6.0 0.00 0.00 0.00 64 1010.1
20260506125822 68 217 2.0 6.0 0.00 0.00 0.00 65 1010.2
20260506125320 68 186 3.0 4.0 0.00 0.00 0.00 66 1010.1
20260506124818 67 254 4.0 4.0 0.00 0.00 0.00 67 1010.2
20260506124315 66 239 3.0 6.0 0.00 0.00 0.00 67 1010.2
20260506123812 66 23 1.0 6.0 0.00 0.00 0.00 68 1010.3
20260506123311 65 266 2.0 4.0 0.00 0.00 0.00 69 1010.2
20260506122807 65 232 4.0 5.0 0.00 0.00 0.00 69 1010.2
20260506122306 65 209 1.0 3.0 0.00 0.00 0.00 70 1010.4
20260506121803 65 202 3.0 5.0 0.00 0.00 0.00 70 1010.3
20260506121259 65 215 2.0 4.0 0.00 0.00 0.00 70 1010.1
20260506120757 65 182 3.0 6.0 0.00 0.00 0.00 71 1010.1
20260506120254 65 256 3.0 8.0 0.00 0.00 0.00 71 1010.1
20260506115752 64 188 2.0 6.0 0.00 0.00 0.00 73 1010.3
20260506115249 64 125 6.0 6.0 0.00 0.00 0.00 73 1010.5
20260506114747 62 182 2.0 5.0 0.00 0.00 0.00 77 1010.6
20260506114245 62 191 1.0 4.0 0.00 0.00 0.00 78 1010.5
20260506113743 62 158 2.0 6.0 0.00 0.00 0.00 77 1010.9
20260506113240 62 200 2.0 4.0 0.00 0.00 0.00 77 1010.8
20260506112736 62 191 3.0 4.0 0.00 0.00 0.00 77 1010.8
20260506112234 62 254 3.0 4.0 0.00 0.00 0.00 77 1010.9
20260506111731 62 218 3.0 3.0 0.00 0.00 0.00 77 1010.8
20260506111230 62 224 4.0 4.0 0.00 0.00 0.00 78 1010.7
20260506110726 62 222 3.0 5.0 0.00 0.00 0.00 76 1010.6
20260506110224 62 170 2.0 2.0 0.00 0.00 0.00 77 1010.6
20260506105720 61 169 2.0 3.0 0.00 0.00 0.00 79 1010.5
20260506105217 60 182 2.0 4.0 0.00 0.00 0.00 80 1010.7
20260506104715 60 160 2.0 3.0 0.00 0.00 0.00 80 1010.6
20260506104212 60 151 2.0 3.0 0.00 0.00 0.00 80 1010.7
20260506103709 60 105 1.0 2.0 0.00 0.00 0.00 80 1010.6
20260506103206 60 220 0.0 4.0 0.00 0.00 0.00 80 1010.8
20260506102704 60 220 0.0 4.0 0.00 0.00 0.00 80 1010.8
20260506102202 60 177 2.0 3.0 0.00 0.00 0.00 80 1010.8
20260506101658 60 204 2.0 3.0 0.00 0.00 0.00 80 1010.5
20260506095238 60 92 2.0 4.0 0.00 0.00 0.00 80 1010.3
20260506094735 60 92 2.0 4.0 0.00 0.00 0.00 80 1010.3
20260506094233 60 187 3.0 4.0 0.00 0.00 0.00 80 1010.5
20260506093731 60 157 1.0 3.0 0.00 0.00 0.00 79 1010.4
20260506093228 60 223 2.0 2.0 0.00 0.00 0.00 79 1010.4
20260506092726 60 225 3.0 4.0 0.00 0.00 0.00 79 1010.5
20260506092223 60 120 2.0 4.0 0.00 0.00 0.00 79 1010.5
20260506091721 60 212 0.0 2.0 0.00 0.00 0.00 79 1010.6
20260506091218 60 76 2.0 5.0 0.00 0.00 0.00 78 1010.5
20260506090716 60 89 0.0 2.0 0.00 0.00 0.00 78 1010.7
20260506090212 60 182 3.0 3.0 0.00 0.00 0.00 78 1010.5
20260506085709 60 280 2.0 3.0 0.00 0.00 0.00 78 1010.6
20260506085205 60 103 3.0 4.0 0.00 0.00 0.00 78 1010.6
20260506084702 60 241 3.0 5.0 0.00 0.00 0.00 77 1010.7
20260506084159 60 140 0.0 5.0 0.00 0.00 0.00 77 1010.6
20260506083655 61 224 0.0 2.0 0.00 0.00 0.00 77 1010.7
20260506083154 61 117 1.0 3.0 0.00 0.00 0.00 76 1010.6
20260506082651 61 215 4.0 6.0 0.00 0.00 0.00 76 1010.6
20260506082150 61 161 4.0 4.0 0.00 0.00 0.00 76 1010.8
20260506081649 61 58 0.0 7.0 0.00 0.00 0.00 76 1010.7
20260506081147 61 171 4.0 8.0 0.00 0.00 0.00 76 1010.8
20260506080644 61 268 4.0 7.0 0.00 0.00 0.00 76 1010.8
20260506080141 61 240 2.0 9.0 0.00 0.00 0.00 75 1010.6
20260506073125 61 298 3.0 5.0 0.00 0.00 0.00 74 1010.7
20260506072621 61 323 1.0 5.0 0.00 0.00 0.00 74 1010.6
20260506072119 61 222 2.0 4.0 0.00 0.00 0.00 74 1010.7
20260506071617 62 261 0.0 6.0 0.00 0.00 0.00 74 1010.5
20260506071114 62 195 1.0 9.0 0.00 0.00 0.00 73 1010.6
20260506070611 62 294 3.0 6.0 0.00 0.00 0.00 73 1010.3
20260506070108 62 165 4.0 11.0 0.00 0.00 0.00 73 1010.3
20260506062045 62 181 2.0 5.0 0.00 0.00 0.00 71 1010.2
20260506061541 62 227 5.0 7.0 0.00 0.00 0.00 71 1010.5
20260506061039 62 231 3.0 4.0 0.00 0.00 0.00 71 1010.4
20260506060537 63 209 3.0 11.0 0.00 0.00 0.00 70 1010.7
20260506051006 64 220 6.0 13.0 0.00 0.00 0.00 66 1010.8
20260506050503 64 291 2.0 4.0 0.00 0.00 0.00 65 1010.9
20260506044953 64 209 5.0 10.0 0.00 0.00 0.00 64 1010.8
20260506044452 64 309 2.0 2.0 0.00 0.00 0.00 63 1010.7
20260506043948 64 251 4.0 12.0 0.00 0.00 0.00 63 1011.1
20260506043445 64 216 6.0 6.0 0.00 0.00 0.00 63 1010.9
20260506042943 64 246 6.0 11.0 0.00 0.00 0.00 63 1010.9
20260506042443 64 223 4.0 6.0 0.00 0.00 0.00 63 1011.0
20260506041940 64 216 4.0 6.0 0.00 0.00 0.00 62 1010.9
20260506041438 64 203 5.0 9.0 0.00 0.00 0.00 62 1010.9
20260506040935 64 284 5.0 7.0 0.00 0.00 0.00 62 1011.0
20260506040433 64 209 7.0 7.0 0.00 0.00 0.00 62 1010.9
20260506035928 64 89 3.0 6.0 0.00 0.00 0.00 61 1011.0
20260506035426 64 217 4.0 4.0 0.00 0.00 0.00 61 1010.9
20260506034922 64 216 4.0 6.0 0.00 0.00 0.00 61 1011.0
20260506034420 64 205 6.0 9.0 0.00 0.00 0.00 61 1010.8
20260506033917 64 210 2.0 8.0 0.00 0.00 0.00 61 1010.6
20260506033414 64 248 4.0 9.0 0.00 0.00 0.00 61 1010.7
20260506032911 64 242 0.0 5.0 0.00 0.00 0.00 61 1010.7
20260506032408 64 286 4.0 9.0 0.00 0.00 0.00 61 1010.7
20260506031904 64 229 11.0 12.0 0.00 0.00 0.00 60 1010.7
20260506031402 64 295 0.0 6.0 0.00 0.00 0.00 61 1010.8
20260506030859 64 225 3.0 6.0 0.00 0.00 0.00 61 1010.7
20260506030357 64 328 2.0 6.0 0.00 0.00 0.00 61 1010.7
20260506025854 64 246 2.0 9.0 0.00 0.00 0.00 61 1010.5
20260506025350 64 225 5.0 5.0 0.00 0.00 0.00 61 1010.7
20260506024848 64 223 1.0 5.0 0.00 0.00 0.00 61 1010.7
20260506024344 64 283 5.0 9.0 0.00 0.00 0.00 61 1010.7
20260506023840 64 234 3.0 8.0 0.00 0.00 0.00 60 1010.9
20260506023337 64 261 6.0 8.0 0.00 0.00 0.00 60 1010.8
20260506022834 64 208 3.0 8.0 0.00 0.00 0.00 61 1010.7
20260506022332 64 180 1.0 6.0 0.00 0.00 0.00 60 1010.7
20260506021830 64 243 5.0 13.0 0.00 0.00 0.00 60 1010.7
20260506021327 64 302 3.0 6.0 0.00 0.00 0.00 61 1010.8
20260506020823 64 203 3.0 5.0 0.00 0.00 0.00 60 1010.6
20260506020321 64 294 3.0 11.0 0.00 0.00 0.00 60 1010.7
20260506015819 64 227 9.0 10.0 0.00 0.00 0.00 60 1010.6
20260506015315 64 180 5.0 8.0 0.00 0.00 0.00 60 1010.7
20260506014812 64 29 2.0 6.0 0.00 0.00 0.00 60 1010.6
20260506014309 64 281 3.0 7.0 0.00 0.00 0.00 60 1010.7
20260506013806 64 227 5.0 8.0 0.00 0.00 0.00 60 1010.7
20260506013303 64 269 0.0 5.0 0.00 0.00 0.00 60 1010.6
20260506012800 64 216 4.0 4.0 0.00 0.00 0.00 59 1010.7
20260506012256 64 223 6.0 9.0 0.00 0.00 0.00 59 1010.7
20260506011754 64 215 6.0 7.0 0.00 0.00 0.00 59 1010.5
20260506011250 64 176 3.0 5.0 0.00 0.00 0.00 58 1010.3
20260506010748 64 159 2.0 4.0 0.00 0.00 0.00 58 1010.2
20260506010245 64 162 3.0 5.0 0.00 0.00 0.00 58 1010.3
20260506005743 65 280 1.0 6.0 0.00 0.00 0.00 57 1010.2
20260506005239 65 233 1.0 7.0 0.00 0.00 0.00 57 1010.1
20260506004735 65 142 1.0 5.0 0.00 0.00 0.00 57 1010.2
20260506004233 65 257 5.0 12.0 0.00 0.00 0.00 56 1010.1
20260506003729 65 146 1.0 7.0 0.00 0.00 0.00 56 1010.1
20260506003225 65 313 2.0 5.0 0.00 0.00 0.00 56 1009.8
20260506002721 66 301 2.0 7.0 0.00 0.00 0.00 55 1009.8
20260506002218 66 24 2.0 7.0 0.00 0.00 0.00 55 1009.9
20260506001714 66 331 2.0 6.0 0.00 0.00 0.00 55 1009.7
20260506001211 66 295 4.0 4.0 0.00 0.00 0.00 55 1009.6
20260506000708 66 253 4.0 12.0 0.00 0.00 0.00 54 1009.5
20260506000206 67 261 4.0 13.0 0.00 0.00 0.00 54 1009.3
20260505235703 67 198 4.0 9.0 0.00 0.00 0.00 54 1009.4
20260505235201 67 276 4.0 8.0 0.00 0.00 0.00 54 1009.2
20260505234657 68 184 0.0 6.0 0.00 0.00 0.00 53 1009.2
20260505234154 68 239 4.0 6.0 0.00 0.00 0.00 53 1009.0
20260505233651 68 277 2.0 5.0 0.00 0.00 0.00 52 1009.1
20260505233149 69 175 0.0 4.0 0.00 0.00 0.00 52 1009.0
20260505232646 69 239 5.0 7.0 0.00 0.00 0.00 51 1008.9
20260505232144 69 37 2.0 3.0 0.00 0.00 0.00 51 1009.0
20260505231640 69 243 0.0 7.0 0.00 0.00 0.00 50 1008.7
20260505231139 70 233 3.0 6.0 0.00 0.00 0.00 50 1008.8
20260505230637 70 273 0.0 4.0 0.00 0.00 0.00 49 1008.7
20260505230132 70 221 6.0 11.0 0.00 0.00 0.00 49 1008.7
20260505225629 71 240 3.0 6.0 0.00 0.00 0.00 48 1008.5
20260505225125 71 216 5.0 7.0 0.00 0.00 0.00 47 1008.3
20260505224622 72 202 4.0 8.0 0.00 0.00 0.00 46 1008.1
20260505224120 72 216 2.0 4.0 0.00 0.00 0.00 46 1007.8
20260505223617 73 203 4.0 5.0 0.00 0.00 0.00 46 1007.8
20260505223113 73 176 1.0 6.0 0.00 0.00 0.00 43 1007.8
20260505222609 73 231 8.0 11.0 0.00 0.00 0.00 42 1008.1
20260505222106 73 143 8.0 11.0 0.00 0.00 0.00 43 1007.9